Weather Roundup
Issued by NWS Springfield, MO

Home | Current Version | Previous Version | Text Only | Print | Product List | Glossary On
Versions: 1 2 3 4 5 6 7 8 9 10 11 12 13 14 15 16 17 18 19 20 21 22 23 24 25 26 27 28 29 30 31 32 33 34 35 36 37 38 39 40 41 42 43 44 45 46 47 48 49 50
000
NZUS99 KSGF 200707
HRRSGF

HOURLY WEATHER
NATIONAL WEATHER SERVICE SPRINGFIELD MO
100 AM CST MON FEB 20 2017

......SGF CWA......

CITY           SKY/WX    TMP DP  RH WIND       PRES   REMARKS
SPRINGFIELD    MOCLDY    60  56  86 SE17      29.97R
JOPLIN         CLOUDY    63  56  78 SE13      29.90F
WEST PLAINS    PTCLDY    56  54  93 SE3       30.05S
ROLLA          CLEAR     58  55  90 S10       30.00F
OSAGE BEACH    CLEAR     60  55  83 SE7       30.00R
BRANSON        CLOUDY    59  57  94 SE13      30.01S

......SURROUNDING SGF CWA......

CITY           SKY/WX    TMP DP  RH WIND       PRES   REMARKS
CHANUTE        CLOUDY    67  55  65 SE17G26   29.85F
PARSONS        MOCLDY    66  55  67 SE10G21   29.86F
COFFEYVILLE    MOCLDY    64  56  75 SE13      29.85F
EMPORIA        TSTM      62  57  83 S18G29    29.84R
GROVE OK       MOCLDY    68  54  60 SE12G17   29.92S
ROGERS AR      MOCLDY    63  54  72 E12       29.95F
SILOAM SPRINGS PTCLDY    64  48  55 S14       29.94S
HARRISON AR    MOCLDY    57  56  96 E8        30.01S
NEAR YELLVILLE MOCLDY    55  48  76 CALM      30.00S

......KANSAS AND MISSOURI......

CITY           SKY/WX    TMP DP  RH WIND       PRES   REMARKS
KANSAS CTY INT CLOUDY    62  55  77 SE13      29.87F
DOWNTOWN KC    CLOUDY    65  56  72 SE14      29.87F
COLUMBIA       PTCLDY    59  55  87 S13       29.99S
SEDALIA        CLEAR     61  56  83 SE14      29.96F
ST JOSEPH      CLOUDY    59  54  83 S8        29.86F
ST LOUIS       CLOUDY    58  53  84 SE9       30.04F
SPIRIT OF STL  CLOUDY    54  53  97 E5        30.02F
KIRKSVILLE     MOCLDY    54  49  83 S7        29.96S
WICHITA        RAIN      58  57  97 S7        29.81R
TOPEKA         CLOUDY    64  56  75 S15       29.83F
OLATHE         CLOUDY    60  56  86 SE15      29.88S

......TENNESSEE......

CITY           SKY/WX    TMP DP  RH WIND       PRES   REMARKS
MEMPHIS        CLEAR     57  49  74 E5        30.06F
NASHVILLE      PTCLDY    50  46  86 CALM      30.14S

......ARKANSAS.......

CITY           SKY/WX    TMP DP  RH WIND       PRES   REMARKS
FAYETTEVILLE   CLOUDY    67  51  56 SE12      29.95F
FT SMITH       CLEAR     66  51  58 E8        29.93S
LITTLE ROCK    MOCLDY    56  56 100 CALM      30.02R

......OKLAHOMA.......

CITY           SKY/WX    TMP DP  RH WIND       PRES   REMARKS
TULSA          CLOUDY    66  58  75 SE13G22   29.81F
MCALESTER      MOCLDY    70  59  68 S10G30    29.87F
OKLAHOMA CITY  LGT RAIN  58  58 100 S7        29.85R

......IOWA............

CITY           SKY/WX    TMP DP  RH WIND       PRES   REMARKS
DES MOINES     CLOUDY    59  47  64 SE10      29.89F
QUAD CITIES    PTCLDY    53  46  77 CALM      30.00F

......ILLINOIS........

CITY           SKY/WX    TMP DP  RH WIND       PRES   REMARKS
QUINCY         CLOUDY    54  50  86 SE8       29.99F
CHICAGO        MOCLDY    41  32  70 CALM      30.12R



USA.gov is the U.S. government's official web portal to all federal, state and local government web resources and services.